Regional Weather Roundup
Issued by NWS

Home | Current Version | Previous Version | Graphics & Text | Print | Product List | Glossary On
Versions: 1 2 3 4 5 6 7 8 9 10 11 12 13 14 15 16 17 18 19 20 21 22 23 24 25 26 27 28 29 30 31 32 33 34 35 36 37 38 39 40 41 42 43 44 45 46 47 48 49 50
000
ASUS43 KLOT 302100
RWRIL

ILLINOIS REGIONAL WEATHER ROUNDUP
NATIONAL WEATHER SERVICE CHICAGO/ROMEOVILLE IL
300 PM CST FRI JAN 30 2015

NOTE: "FAIR" INDICATES FEW OR NO CLOUDS BELOW 12,000 FEET WITH NO
SIGNIFICANT WEATHER AND/OR OBSTRUCTIONS TO VISIBILITY.

* THESE STATIONS ARE NOT UNDER NWS QUALITY CONTROL. THEY ALSO MAY NOT
  REPORT WEATHER SUCH AS PRECIPITATION OR FOG.

ILZ001-002-007-009-015-016-024-302200-
NORTHWEST ILLINOIS

CITY           SKY/WX    TMP DP  RH WIND       PRES   REMARKS
MOLINE         SUNNY     30  14  51 W5        30.46F WCI  25
STERLING*      SUNNY     28  14  54 W5        30.48F WCI  23
$$

ILZ003-004-008-010-011-017-018-302200-
NORTH CENTRAL ILLINOIS

CITY           SKY/WX    TMP DP  RH WIND       PRES   REMARKS
ROCKFORD       MOSUNNY   28  10  46 W6        30.47F WCI  22
DE KALB*       SUNNY     25  13  58 CALM      30.46S
$$

ILZ005-006-012>014-019>023-302200-
NORTHEAST ILLINOIS

CITY           SKY/WX    TMP DP  RH WIND       PRES   REMARKS
CHICAGO-OHARE  MOSUNNY   28   8  43 VRB3      30.45F
CHICAGO-MIDWAY MOSUNNY   31   9  39 VRB7      30.46F WCI  24
AURORA         SUNNY     28  12  51 NW7       30.47S WCI  21
WAUKEGAN       SUNNY     25  12  58 E5        30.45S WCI  19
DUPAGE AIRPORT SUNNY     29  10  45 CALM      30.45F
WHEELING       MOSUNNY   28   8  43 CALM      30.47F
NORTHERLY ISL    N/A     26  15  63 E7          N/A  WCI  19
$$

LMZ740>746-302200-
SOUTHERN LAKE MICHIGAN

STATION/POSITION SKY/WX   TEMP    WIND        PRES    VSBY  WAVE
                          AIR SEA DIR/SP/G                  HT/PER
                          (F)     (DEG/KT/KT) (MB)    (MI)  (FT/S)
WAUKEGAN HARBOR            25     100/  3/  5   N/A
HARRISON CRIB              24      30/  6/  7   N/A
BURNHAM HARBOR             26      60/  5/  9   N/A
CALUMET HARBOR             25      50/  5/  7   N/A
MICHIGAN CITY              26     320/  8/ 10   N/A
$$

ILZ025>027-034>036-040-047-049-050-058-095>099-302200-
WEST-CENTRAL ILLINOIS

CITY           SKY/WX    TMP DP  RH WIND       PRES   REMARKS
QUINCY         SUNNY     35  15  44 VRB7      30.47F WCI  29
$$

ILZ028>032-037-038-041>044-048-051>054-059>061-302200-
CENTRAL ILLINOIS

CITY           SKY/WX    TMP DP  RH WIND       PRES   REMARKS
DECATUR        SUNNY     35  17  47 VRB3      30.48S
PEORIA         SUNNY     35  17  47 SW6       30.47F WCI  30
SPRINGFIELD    SUNNY     36  18  48 CALM      30.48F
TAYLORVILLE    NOT AVBL
$$

ILZ033-039-045-046-055>057-062-063-302200-
EAST-CENTRAL ILLINOIS

CITY           SKY/WX    TMP DP  RH WIND       PRES   REMARKS
CHAMPAIGN      MOSUNNY   34  16  47 VRB5      30.46F WCI  30
MATTOON        SUNNY     34  16  47 CALM      30.46S
$$

ILZ079-100>102-302200-
SOUTHWEST ILLINOIS

CITY           SKY/WX    TMP DP  RH WIND       PRES   REMARKS
ALTON          SUNNY     37  14  38 VRB6      30.49S WCI  33
BELLEVILLE     SUNNY     40  20  44 N5        30.49S
CAHOKIA*       SUNNY     39  19  44 CALM      30.49F
$$

ILZ064>066-069>071-074>076-080>082-084>086-088>090-092>094-302200-
SOUTH-CENTRAL ILLINOIS

CITY           SKY/WX    TMP DP  RH WIND       PRES   REMARKS
CARBONDALE     SUNNY     40  20  44 NW5       30.49R
MARION         MOSUNNY   41  21  45 N7        30.49S
MT. VERNON     SUNNY     39  19  45 E3        30.49R
$$

ILZ067-068-072-073-078-083-087-091-302200-
SOUTHEAST ILLINOIS

CITY           SKY/WX    TMP DP  RH WIND       PRES   REMARKS
LAWRENCEVILLE  SUNNY     39  18  42 N8        30.48S WCI  33
$$

ABBREVIATIONS USED IN REMARKS
   TC - TEMPERATURE IN CELSIUS
  WCI - WIND CHILL INDEX
   HX - HEAT INDEX
  VSB - VISIBILITY
$$




USA.gov is the U.S. government's official web portal to all federal, state and local government web resources and services.